www.pogodaiklimat.ru

Погода и климат >> Архив погоды >> Черногория >> Подгорица


АРХИВ ПОГОДЫ в Подгорице

Время (UTC), дата Ветер
(напр.,м/с)
 
Видим.   Явления Облачность Т
(С)
Тd
(С)
f
(%)
Тe
(С)
Тes
(С)
Комфортность P
(гПа)
Po
(гПа)
Тmin
(С)
Tmax
(С)
R
(мм)
R24
(мм)
S
(см)
12 18.06 Ю 2 10 км 5/3 1200 м
[Cu med, cong Ac trans Ci sp]
+31.0 +15.3 39 +33 +44 душно 1013.0 1009.2
15 18.06 ЮЗ 2 20 км 3/1 1200 м
[Cu med, cong Ci fib]
+31.8 +14.6 35 +34 +40 душно 1011.8 1008.0
18 18.06 С 5 20 км 5/1 1500 м
[Sc diur, vesp Ac trans Ci fib]
+26.1 +13.3 45 +28 +28 жарко 1012.9 1009.1 +32.2
21 18.06 С 3 20 км ясно +23.4 +13.9 55 +27 +27 душно 1014.0 1010.1
00 19.06 С 1 20 км ясно +22.0 +13.6 59 +25 +25 комфорт 1013.7 1009.8
03 19.06 С 1 20 км 3/0
[Cc]
+20.6 +13.6 64 +24 +24 комфорт 1013.3 1009.4
06 19.06 СЗ 3 20 км ясно +25.1 +13.7 49 +27 +32 жарко 1013.8 1009.9 +20.6
09 19.06 Ю 1 20 км 1/1 1200 м
[Cu hum]
+29.2 +14.5 41 +31 +50 жарко 1013.2 1009.4
12 19.06 ЮЗ 3 20 км 3/3 1200 м
[Cu hum]
+31.4 +14.1 35 +33 +44 жарко 1011.6 1007.8
15 19.06 ЮЗ 2 20 км {гроза} 4/3 1000 м
[Cu med, cong Ci sp]
+31.6 +15.8 39 +34 +39 душно 1010.5 1006.7
18 19.06 Ю 1 20 км 5/4 1200 м
[Cu Sc Ac trans Ci fib]
+27.7 +15.9 49 +31 +31 душно 1011.4 1007.6 +32.3
21 19.06 ЮЗ 1 20 км ясно +24.4 +17.4 65 +28 +28 душно 1012.4 1008.5
00 20.06 С 1 20 км ясно +22.2 +17.1 73 +27 +27 душно 1012.4 1008.5
03 20.06 С 1 20 км ясно +21.2 +15.8 71 +24 +24 комфорт 1012.6 1008.7
06 20.06 С 1 20 км ясно +25.4 +15.6 55 +29 +35 душно 1013.1 1009.3 +20.8
09 20.06 Ю 1 20 км 1/1 1200 м
[Cu hum]
+28.5 +18.1 53 +33 +51 опасность
солнечного
удара
1012.8 1009.0
12 20.06 Ю 2 20 км 3/3 1020 м
[Cu hum]
+31.1 +18.1 46 +36 +48 очень
душно
1011.5 1007.7
15 20.06 Ю 2 20 км 5/3 1020 м
[Cu med, cong Ac trans Ci sp]
+31.0 +18.3 47 +36 +40 очень
душно
1010.5 1006.7
18 20.06 С 3 20 км {дождь} 6/3 1200 м
[Cu Sc Ac trans Ci sp]
+26.6 +14.4 47 +29 +29 жарко 1012.0 1008.2 +31.5 0.0
21 20.06 СЗ 1 20 км 3/0
[Ci sp]
+22.7 +15.0 62 +27 +27 душно 1013.7 1009.8
00 21.06 С 3 20 км ясно +21.9 +14.8 64 +25 +25 комфорт 1013.9 1010.0
03 21.06 С 3 20 км ясно +20.9 +14.7 68 +24 +24 комфорт 1014.4 1010.4
06 21.06 С 1 20 км ясно +25.4 +15.1 53 +28 +35 жарко 1015.2 1011.3 +20.7
09 21.06 штиль 0 20 км 1/1 1200 м
[Cu med, cong]
+29.6 +15.4 42 +32 +53 опасность
солнечного
удара
1015.0 1011.2
12 21.06 Ю 3 20 км 3/3 1200 м
[Cu med, cong]
+32.1 +17.4 42 +36 +47 очень
душно
1013.5 1009.7
15 21.06 Ю 2 20 км гроза без осадков 5/4 1000 м
[Cb cap Ci sp]
+32.8 +17.5 40 +37 +41 очень
душно
1012.8 1009.0
18 21.06 Ю 2 20 км {гроза, дождь} 3/3 1200 м
[Cu Sc]
+28.7 +20.5 61 +35 +35 очень
душно
1013.4 1009.6 +32.9 0.0
21 21.06 штиль 0 20 км ясно +25.9 +21.4 76 +33 +33 очень
душно
1015.1 1011.2
00 22.06 С 1 20 км ясно +24.2 +17.0 64 +28 +28 душно 1015.2 1011.3
03 22.06 С 1 20 км ясно +22.3 +17.4 74 +27 +27 душно 1015.2 1011.3
06 22.06 С 1 10 км ясно +26.6 +15.1 49 +29 +36 жарко 1016.0 1012.1 +21.8
09 22.06 В 1 10 км ясно +31.3 +15.7 39 +34 +54 опасность
солнечного
удара
1016.1 1012.3
12 22.06 Ю 2 10 км 4/3 1000 м
[Cu med, cong Ac trans]
+32.9 +16.9 38 +36 +48 очень
душно
1015.0 1011.2
15 22.06 ЮЗ 1 20 км 6/1 1200 м
[Cu med, cong Ac trans Ci sp]
+33.6 +14.2 31 +35 +40 душно 1013.4 1009.6
18 22.06 штиль 0 20 км 3/0
[Ci sp]
+30.9 +18.3 47 +36 +36 очень
душно
1013.1 1009.3 +34.3
21 22.06 З 1 20 км ясно +26.0 +19.1 66 +31 +31 очень
душно
1013.8 1009.9
00 23.06 С 1 20 км 3/0
[Ci sp]
+24.2 +17.9 68 +28 +28 душно 1013.8 1009.9
03 23.06 СВ 1 20 км 9/0
[Cs]
+22.4 +16.3 68 +27 +27 душно 1013.4 1009.5
06 23.06 В 1 20 км 4/0
[Ac trans Ci fib]
+26.3 +17.9 60 +31 +36 душно 1012.7 1008.9 +22.1
09 23.06 Ю 2 20 км 3/0
[Ac trans Ci fib]
+30.4 +15.2 40 +33 +48 душно 1012.6 1008.8
12 23.06 ЮВ 5 20 км 4/3 1500 м
[Cu med, cong Ac trans]
+31.1 +20.3 53 +38 +44 очень
душно
1012.9 1009.1
15 23.06 Ю 5 10 км 4/3 1200 м
[Cu med, cong Ac trans]
+30.2 +19.8 54 +36 +39 очень
душно
1012.3 1008.5
18 23.06 ЮВ 1 10 км 4/3 1200 м
[Cu med, cong Ac trans]
+27.1 +17.9 57 +32 +32 очень
душно
1012.7 1008.8 +31.8
21 23.06 Ю 3 10 км 4/1 1200 м
[Cu med, cong Ci sp]
+25.0 +20.5 76 +31 +31 очень
душно
1013.6 1009.7
00 24.06 штиль 0 10 км 4/0
[Ac trans]
+23.5 +20.6 84 +29 +29 душно 1013.8 1009.9
03 24.06 СВ 1 10 км 6/3 900 м
[Cu Sc Ac trans Ci sp]
+22.1 +19.2 84 +28 +28 душно 1013.8 1009.9
06 24.06 штиль 0 10 км 8/3 900 м
[Cu med, cong Ac trans]
+25.1 +18.8 68 +30 +33 душно 1014.1 1010.2 +22.0
09 24.06 С 2 10 км 10/3 800 м
[Cu med, cong Ac As]
+26.5 +15.2 50 +29 +33 жарко 1014.7 1010.8
12 24.06 ЮЗ 2 10 км 5/4 800 м
[Cu med, cong Ci sp]
+29.1 +16.8 47 +33 +43 очень
душно
1014.0 1010.2
15 24.06 Ю 1 20 км {гроза, ливн. осадки} 4/1 1200 м
[Cu med, cong Ac trans]
+28.7 +18.0 52 +33 +39 очень
душно
1013.8 1009.9
18 24.06 Ю 2 20 км {гроза, ливн. осадки} 3/1 1500 м
[Sc Ac trans]
+26.3 +19.1 65 +32 +32 очень
душно
1014.6 1010.7 +29.7 2
21 24.06 штиль 0 10 км ясно +23.5 +19.1 76 +28 +28 душно 1015.8 1011.9
00 25.06 В 1 10 км ясно +22.6 +15.3 63 +26 +26 жарко 1015.7 1011.8
03 25.06 З 1 10 км ясно +21.1 +17.1 78 +25 +25 комфорт 1015.8 1011.8
06 25.06 С 1 20 км 5/1 1500 м
[Cu hum Ac lent Ci sp]
+28.6 +15.1 44 +31 +36 жарко 1016.2 1012.3 +20.4

 

Местоположение метеостанции Подгорица (Черногория): широта 42.37 долгота 19.25 высота над уровнем моря 33 м.

В архиве по умолчанию представлена погода в Подгорице за последнюю неделю. Архивные данные за месяц целиком и за предыдущие месяцы, начиная с января 2011 года, Вы можете получить, выбрав интересующий диапазон дат из раскрывающегося списка и нажав кнопку "Ввод!".


*Определитесь, кто Вы:
робот инопланетянин человек

Внимание! Время в таблицах - всемирное. Для получения местного времени необходимо прибавить поправку, которая равна 1 ч.

Смотрите также архив погоды в соседних городах и на ближайших метеорологических станциях:

Погода в Подгорица-Граде (Черногория) (7 км)
Погода в Баре (Черногория) (32 км)
Погода в Шкодре (Албания) (38 км)
Погода в Тивате (Черногория) (43 км)
Погода в Никшиче (Черногория) (51 км)
Погода в Дубровник аэропорту (Хорватия) (83 км)
Погода в Дубровнике (Хорватия) (101 км)
Погода в Плевле (Черногория) (109 км)
Погода в Тиране Лапрака (Албания) (117 км)
Погода в Женике (Сербия) (118 км)

Пояснения к столбцам:

Ветер - указаны скорость ветра в м/с - средняя за 10 мин, порывы в срок и между сроками (в фигурных скобках) и направление, откуда дует ветер: С - северный, СВ - северо-восточный, В - восточный, ЮВ - юго-восточный, Ю - южный, ЮЗ - юго-западный, З - западный, СЗ - северо-западный.
Видимость - горизонтальная дальность видимости в метрах или километрах. При видимости от 1 до 10 км при отсутствии осадков обычно наблюдается дымка, при ухудшении видимости до 1 км и менее - туман. В сухую погоду видимость может ухудшаться дымом, пылью или мглою.
Явления - указаны атмосферные явления, наблюдавшиеся в срок или в последний час перед сроком; фигурными скобками обозначены явления, наблюдавшиеся между сроками (за 1-3 часа до срока); квадратными скобками обозначены град или гололедные отложения с указанием их диаметра в мм.
Облачность - указаны через наклонную черту общая и нижняя облачность в баллах и высота нижней границы облаков в метрах; квадратными скобками обозначены формы облаков: Ci - перистые, Cs - перисто-слоистые, Cc - перисто-кучевые, Ac - высококучевые, As - высокослоистые, Sc - слоисто-кучевые, Ns - слоисто-дождевые, Cu - кучевые, Cb - кучево-дождевые. Подробнее классификацию облаков см. в Атласе облаков (PDF).
T - Температура воздуха - температура, измеренная на высоте 2 м над землей.
Td - Температура точки росы - температура, при понижении до которой содержащийся в воздухе водяной пар достигнет насыщения.
f - Относительная влажность воздуха - влажноcть воздуха, измеренная на высоте 2 м над землей.
Te - Эффективная температура - температура, которую ощущает одетый по сезону человек в тени. Характеристика душности погоды. При расчете учитывается влияние влажности воздуха и скорости ветра на теплоощущения человека.
Tes - Эффективная температура на солнце - температура, которую ощущает человек, с поправкой на солнечный нагрев. Характеристика знойности погоды. Зависит от высоты солнца над горизонтом, облачности и скорости ветра. Ночью, в пасмурную погоду, а также при ветре 12 м/с и более поправка равна нулю.
P - Атмосферное давление - приведенное к уровню моря атмосферное давление.
Po - Атмосферное давление - измеренное на уровне метеостанции атмосферное давление.
Tmin - Минимальная температура - минимум температуры воздуха на высоте 2 м над землей.
Tmax - Максимальная температура - максимум температуры воздуха на высоте 2 м над землей.
R - Количество осадков - Количество выпавших осадков за период времени, мм. При наведении курсора мыши на число - период времени, за который выпало указанное количество осадков.
R24 - Количество осадков - Количество выпавших осадков за 24 часа, мм.
S - Снежный покров - Высота снежного покрова, см. При наведении курсора мыши на число - состояние снежного покрова и степень покрытия местности в баллах.